Farmville, Virginia, United States (23901)
Lat: 37.30N, Lon: 78.39W
Wx Zone: VAZ060
Local Info
Past Weather Observations for Today

NOTE: This archive is for the closest National Weather Service station to Farmville. Information may differ from the station used for current weather conditions.

Click here for Long-term Archive

Time Weather Temperature Dewpoint Humidity Pressure Winds Precip Visibility
18:15
Clear
Thunder Storms
86°F / 30°C 77°F / 25°C 75% 29.8 in
(1009 mb)
Calm - 10SM
17:55
Partly Cloudy
Thunder Storms
N/A N/A N/A 29.77 in
(1008 mb)
Calm - 10SM
17:54
Partly Cloudy
Thunder Storms
88°F / 31°C 77°F / 25°C 70% 29.77 in
(1008 mb)
Calm - 10SM
17:14
Clear
91°F / 33°C 73°F / 23°C 56% 29.77 in
(1008 mb)
SW 3.5 mph
(SW 6 kph)
- 10SM
15:34
Partly Cloudy
93°F / 34°C 75°F / 24°C 56% 29.8 in
(1009 mb)
SSE 6.9 mph
(SSE 11 kph)
- 10SM
14:34
Partly Cloudy
93°F / 34°C 75°F / 24°C 56% 29.83 in
(1010 mb)
SSE 8.1 mph
(SSE 13 kph)
- 10SM
10:55
Clear
90°F / 32°C 70°F / 21°C 52% 29.92 in
(1013 mb)
SW 3.5 mph
(SW 6 kph)
- 10SM
10:35
Clear
91°F / 33°C 73°F / 23°C 56% 29.92 in
(1013 mb)
Calm - 10SM
10:15
Partly Cloudy
88°F / 31°C 73°F / 23°C 62% 29.92 in
(1013 mb)
Calm - 10SM
09:55
Partly Cloudy
88°F / 31°C 75°F / 24°C 66% 29.92 in
(1013 mb)
SW 3.5 mph
(SW 6 kph)
- 10SM
09:35
Clear
86°F / 30°C 75°F / 24°C 70% 29.92 in
(1013 mb)
SW 3.5 mph
(SW 6 kph)
- 10SM
09:15
Clear
84°F / 29°C 77°F / 25°C 79% 29.92 in
(1013 mb)
Calm - 10SM
08:55
Clear
82°F / 28°C 77°F / 25°C 84% 29.92 in
(1013 mb)
Calm - 10SM
08:35
Clear
82°F / 28°C 79°F / 26°C 89% 29.92 in
(1013 mb)
Calm - 10SM
08:15
Clear
81°F / 27°C 79°F / 26°C 94% 29.92 in
(1013 mb)
Calm - 10SM
07:55
Clear
81°F / 27°C 79°F / 26°C 94% 29.92 in
(1013 mb)
S 3.5 mph
(S 6 kph)
- 10SM
07:35
Clear
79°F / 26°C 79°F / 26°C 100% 29.92 in
(1013 mb)
S 4.6 mph
(S 7 kph)
- 10SM
07:15
Clear
N/A N/A N/A 29.92 in
(1013 mb)
Calm - 10SM
06:55
Partly Cloudy
N/A N/A N/A 29.95 in
(1014 mb)
S 3.5 mph
(S 6 kph)
- 10SM
06:35
Clear
N/A N/A N/A 29.95 in
(1014 mb)
Calm - 7SM
06:15
Clear
Hazy
N/A N/A N/A 29.95 in
(1014 mb)
Calm - 5SM
05:55
Clear
Hazy
N/A N/A N/A 29.95 in
(1014 mb)
Calm - 5SM
05:35
Partly Cloudy
Hazy
N/A N/A N/A 29.92 in
(1013 mb)
Calm - 5SM
05:15
Clear
Hazy
N/A N/A N/A 29.92 in
(1013 mb)
Calm - 5SM
04:55
Clear
N/A N/A N/A 29.92 in
(1013 mb)
Calm - 7SM
04:35
Clear
N/A N/A N/A 29.92 in
(1013 mb)
Calm - 7SM
04:15
Partly Cloudy
N/A N/A N/A 29.92 in
(1013 mb)
Calm - 7SM
03:55
Partly Cloudy
Hazy
N/A N/A N/A 29.92 in
(1013 mb)
Calm - 5SM
03:35
Partly Cloudy
Hazy
N/A N/A N/A 29.92 in
(1013 mb)
Calm - 5SM
03:15
Partly Cloudy
Hazy
N/A N/A N/A 29.92 in
(1013 mb)
Calm - 5SM
02:55
Partly Cloudy
Hazy
N/A N/A N/A 29.92 in
(1013 mb)
Calm - 5SM
02:35
Partly Cloudy
Thunder Storms
N/A N/A N/A 29.92 in
(1013 mb)
SW 3.5 mph
(SW 6 kph)
- 5SM
02:15
Partly Cloudy
Thunder Storms
N/A N/A N/A 29.92 in
(1013 mb)
Calm - 5SM
01:55
Partly Cloudy
Hazy
N/A N/A N/A 29.95 in
(1014 mb)
Calm - 5SM
01:35
Partly Cloudy
Hazy
N/A N/A N/A 29.95 in
(1014 mb)
Calm - 4SM
01:15
Clear
N/A N/A N/A 29.95 in
(1014 mb)
Calm - 7SM
00:55
Partly Cloudy
N/A N/A N/A 29.95 in
(1014 mb)
Calm - 7SM
00:35
Clear
Hazy
N/A N/A N/A 29.95 in
(1014 mb)
Calm - 4SM
00:15
Clear
Hazy
N/A N/A N/A 29.95 in
(1014 mb)
Calm - 5SM
Time Weather Temperature Dewpoint Humidity Pressure Winds Precip Visibility


Weather for websites

WeatherForYou.com, LLC is not responsible for any damages or problems caused by this service. Current weather conditions are obtained from the closest station including government and personal stations which may have varying degrees of accuracy. Weather forecasts are derived from the NOAA NDFD. Like all things, this site belongs to Jesus Christ... He just trusts us to maintain it. If you have any questions or comments email webmaster@weatherforyou.com

Copyright © 2016, WeatherForYou.com LLC. All rights reserved.